Weather History for Charleroi, Belgium

Change the Weather History Date:

Wednesday, October 24, 2012

  Actual Average Record
Temperature  
Mean Temperature 54 °F -  
Max Temperature 62 °F 48 °F 64 °F (2004)
Min Temperature 46 °F 38 °F 23 °F (2003)
Degree Days  
Heating Degree Days 11    
Growing Degree Days 4 (Base 50)    
Moisture  
Dew Point 49 °F    
Average Humidity 84    
Maximum Humidity 100    
Minimum Humidity 56    
Precipitation  
Precipitation 0.00 in - - ()
Sea Level Pressure  
Sea Level Pressure 30.10 in    
Wind  
Wind Speed 4 mph ()    
Max Wind Speed 9 mph    
Max Gust Speed -    
Visibility 3.2 miles    
Events Fog    
Averages and records for this station are not official NWS values.
T = Trace of Precipitation, MM = Missing Value Source: Averaged Metar Reports

Daily Weather History Graph

Daily Weather History Graph

Search for Another Location

Airport:

Trip Planner

Search our weather history database for the weather conditions in past years. The results will help you decide how hot, cold, wet, or windy it might be!

Date:

Astronomy

Oct. 24, 2012 Rise Set
Actual Time 8:20 AM CEST 6:31 PM CEST
Civil Twilight 7:46 AM CEST 7:05 PM CEST
Nautical Twilight 7:08 AM CEST 7:43 PM CEST
Astronomical Twilight 6:30 AM CEST 8:21 PM CEST
Moon 4:06 PM CEST (10/24) 2:27 AM CEST (10/24)
Length of Visible Light 11h 19m
Length of Day
10h 11m
Waxing Gibbous, 73% of the Moon is Illuminated
Oct 24
Waxing Gibbous
Oct 29
Full
Nov 7
Last Quarter
Nov 13
New
Nov 20
First Quarter

Hourly Weather History & Observations

Time (CEST) Temp. Dew Point Humidity Pressure Visibility Wind Dir Wind Speed Gust Speed Precip Events Conditions
12:20 AM 51.8 °F 48.2 °F 88% 30.18 in 3.7 mi ENE 3.5 mph - N/A   Unknown
12:50 AM 51.8 °F 50.0 °F 94% 30.15 in 3.7 mi Variable 2.3 mph - N/A   Unknown
1:20 AM 50.0 °F 48.2 °F 94% 30.15 in 3.7 mi Variable 1.2 mph - N/A   Scattered Clouds
1:50 AM 50.0 °F 48.2 °F 94% 30.15 in - Variable 1.2 mph - N/A   Scattered Clouds
2:00 AM 50 °F 48 °F 91% 30.18 in 3 mi Calm Calm - -   Mist
2:20 AM 50.0 °F 48.2 °F 94% 30.15 in - North 4.6 mph - N/A   Scattered Clouds
3:50 AM 50.0 °F 48.2 °F 94% 30.15 in - Variable 2.3 mph - N/A   Mist
4:20 AM 50.0 °F 48.2 °F 94% 30.15 in - South 3.5 mph - N/A   Mist
4:50 AM 50.0 °F 48.2 °F 94% 30.15 in 1.6 mi SSW 3.5 mph - N/A   Mist
5:00 AM 50 °F 48 °F 91% 30.16 in 2 mi SSW 2.2 mph - -   Mist
5:20 AM 50.0 °F 48.2 °F 94% 30.12 in 1.6 mi South 2.3 mph - N/A   Mist
5:50 AM 50.0 °F 48.2 °F 94% 30.12 in 1.4 mi Variable 1.2 mph - N/A   Mist
6:20 AM 48.2 °F 48.2 °F 100% 30.12 in 1.4 mi Calm Calm - N/A   Mist
6:50 AM 48.2 °F 46.4 °F 93% 30.12 in 1.4 mi Variable 1.2 mph - N/A   Mist
7:20 AM 48.2 °F 46.4 °F 93% 30.12 in 1.6 mi ENE 2.3 mph - N/A   Mist
7:50 AM 48.2 °F 46.4 °F 93% 30.12 in 1.4 mi Variable 2.3 mph - N/A   Mist
8:00 AM 48 °F 47 °F 96% 30.14 in 1 mi ESE 2.2 mph - -   Mist
8:20 AM 48.2 °F 46.4 °F 93% 30.12 in 1.2 mi Variable 1.2 mph - N/A Fog Fog
8:50 AM 48.2 °F 46.4 °F 93% 30.12 in 1.4 mi Variable 2.3 mph - N/A   Mist
9:20 AM 50.0 °F 48.2 °F 94% 30.12 in - Variable 2.3 mph - N/A   Mist
9:50 AM 51.8 °F 48.2 °F 88% 30.09 in 2.5 mi South 3.5 mph - N/A   Mist
10:20 AM 51.8 °F 48.2 °F 88% 30.09 in 3.7 mi SSE 3.5 mph - N/A   Unknown
10:50 AM 53.6 °F 48.2 °F 82% 30.12 in 3.7 mi SSW 3.5 mph - N/A   Partly Cloudy
11:00 AM 54 °F 47 °F 72% 30.13 in 4 mi SSW 2.2 mph - -   Scattered Clouds
11:20 AM 55.4 °F 48.2 °F 77% 30.12 in 5.0 mi Variable 2.3 mph - N/A   Partly Cloudy
11:50 AM 55.4 °F 48.2 °F 77% 30.12 in 5.0 mi NE 6.9 mph - N/A   Unknown
12:20 PM 57.2 °F 48.2 °F 72% 30.12 in 4.3 mi ENE 9.2 mph - N/A   Partly Cloudy
12:50 PM 57.2 °F 50.0 °F 77% 30.12 in 4.3 mi NE 9.2 mph - N/A   Unknown
1:20 PM 59.0 °F 50.0 °F 72% 30.12 in 5.0 mi NE 6.9 mph - N/A   Unknown
1:50 PM 60.8 °F 48.2 °F 63% 30.09 in 5.0 mi NE 8.1 mph - N/A   Unknown
2:00 PM 60 °F 48 °F 56% 30.12 in 5 mi NE 8.9 mph - -   Scattered Clouds
2:20 PM 60.8 °F 48.2 °F 63% 30.09 in 5.0 mi ENE 6.9 mph - N/A   Unknown
2:50 PM 60.8 °F 50.0 °F 68% 30.09 in 5.0 mi NE 8.1 mph - N/A   Unknown
3:20 PM 60.8 °F 50.0 °F 68% 30.09 in 5.0 mi ENE 8.1 mph - N/A   Unknown
3:50 PM 62.6 °F 50.0 °F 63% 30.06 in 4.3 mi ENE 8.1 mph - N/A   Unknown
4:20 PM 60.8 °F 51.8 °F 72% 30.06 in 4.3 mi NE 9.2 mph - N/A   Unknown
4:50 PM 60.8 °F 51.8 °F 72% 30.06 in 3.7 mi NE 9.2 mph - N/A   Unknown
5:00 PM 62 °F 52 °F 62% 30.08 in 4 mi NE 8.9 mph - -   Scattered Clouds
5:20 PM 60.8 °F 51.8 °F 72% 30.06 in 3.7 mi NE 9.2 mph - N/A   Unknown
5:50 PM 60.8 °F 51.8 °F 72% 30.06 in 3.1 mi ENE 6.9 mph - N/A   Haze
6:20 PM 57.2 °F 51.8 °F 82% 30.06 in 3.1 mi NE 8.1 mph - N/A   Mist
6:50 PM 57.2 °F 51.8 °F 82% 30.06 in 3.1 mi NE 8.1 mph - N/A   Mist
7:20 PM 57.2 °F 51.8 °F 82% 30.06 in 3.1 mi NE 9.2 mph - N/A   Mist
7:50 PM 57.2 °F 51.8 °F 82% 30.06 in 3.1 mi ENE 6.9 mph - N/A   Mist
8:00 PM 57 °F 52 °F 78% 30.07 in 3 mi ENE 6.7 mph - -   Scattered Clouds
8:20 PM 55.4 °F 51.8 °F 88% 30.06 in 3.1 mi ENE 6.9 mph - N/A   Mist
8:50 PM 55.4 °F 51.8 °F 88% 30.04 in - ENE 8.1 mph - N/A   Mist
9:20 PM 55.4 °F 51.8 °F 88% 30.04 in - ENE 6.9 mph - N/A   Mist
9:50 PM 53.6 °F 50.0 °F 88% 30.06 in - NE 5.8 mph - N/A   Mist
10:20 PM 53.6 °F 50.0 °F 88% 30.06 in - East 6.9 mph - N/A   Mist
10:50 PM 51.8 °F 50.0 °F 94% 30.06 in - NE 8.1 mph - N/A   Mist
11:20 PM 51.8 °F 50.0 °F 94% 30.04 in 1.2 mi East 8.1 mph - N/A   Mist
11:50 PM 51.8 °F 50.0 °F 94% 30.04 in 1.2 mi ENE 4.6 mph - N/A   Mist